| time (UTC) | temp F | wind direction | speed knots | gust knots | rain 1hr in | rain 24hr in | rain mn in | humidity % | barometer mb |
| 20260506092026 | 29 | 354 | 0.0 | 0.0 | 0.00 | 0.00 | 0.00 | 93 | 980.7 |
| 20260506091525 | 29 | 354 | 0.0 | 0.0 | 0.00 | 0.00 | 0.00 | 93 | 981.0 |
| 20260506091024 | 29 | 354 | 0.0 | 0.0 | 0.00 | 0.00 | 0.00 | 92 | 980.7 |
| 20260506090523 | 29 | 354 | 0.0 | 0.0 | 0.00 | 0.00 | 0.00 | 92 | 980.7 |
| 20260506090022 | 29 | 354 | 0.0 | 0.0 | 0.00 | 0.00 | 0.00 | 92 | 980.9 |
| 20260506085521 | 29 | 354 | 0.0 | 0.0 | 0.00 | 0.00 | 0.00 | 92 | 980.8 |
| 20260506085021 | 30 | 354 | 0.0 | 0.0 | 0.00 | 0.00 | 0.00 | 92 | 980.9 |
| 20260506084520 | 30 | 354 | 0.0 | 0.0 | 0.00 | 0.00 | 0.00 | 92 | 980.7 |
| 20260506084019 | 30 | 354 | 0.0 | 0.0 | 0.00 | 0.00 | 0.00 | 92 | 980.7 |
| 20260506083518 | 30 | 354 | 0.0 | 0.0 | 0.00 | 0.00 | 0.00 | 92 | 980.7 |
| 20260506083017 | 30 | 354 | 0.0 | 0.0 | 0.00 | 0.00 | 0.00 | 92 | 980.7 |
| 20260506082517 | 30 | 354 | 0.0 | 0.0 | 0.00 | 0.00 | 0.00 | 92 | 980.6 |
| 20260506082016 | 30 | 354 | 0.0 | 0.0 | 0.00 | 0.00 | 0.00 | 92 | 980.9 |
| 20260506081515 | 30 | 354 | 0.0 | 0.0 | 0.00 | 0.00 | 0.00 | 92 | 980.5 |
| 20260506081014 | 30 | 354 | 0.0 | 0.0 | 0.00 | 0.00 | 0.00 | 91 | 980.5 |
| 20260506080513 | 30 | 354 | 0.0 | 0.0 | 0.00 | 0.00 | 0.00 | 91 | 980.6 |
| 20260506073509 | 30 | 354 | 0.0 | 0.0 | 0.00 | 0.00 | 0.00 | 91 | 980.2 |
| 20260506073008 | 30 | 354 | 0.0 | 0.0 | 0.00 | 0.00 | 0.00 | 91 | 980.2 |
| 20260506072507 | 30 | 354 | 0.0 | 0.0 | 0.00 | 0.00 | 0.00 | 91 | 980.0 |
| 20260506072007 | 30 | 354 | 0.0 | 0.0 | 0.00 | 0.00 | 0.00 | 90 | 980.0 |
| 20260506071506 | 30 | 354 | 0.0 | 0.0 | 0.00 | 0.00 | 0.00 | 90 | 980.1 |
| 20260506071005 | 31 | 354 | 0.0 | 0.0 | 0.00 | 0.00 | 0.00 | 90 | 979.9 |
| 20260506070504 | 31 | 354 | 0.0 | 0.0 | 0.00 | 0.00 | 0.00 | 89 | 980.1 |
| 20260506062457 | 32 | 354 | 0.0 | 0.0 | 0.00 | 0.00 | 0.00 | 88 | 980.1 |
| 20260506061957 | 32 | 354 | 0.0 | 0.0 | 0.00 | 0.00 | 0.00 | 88 | 980.2 |
| 20260506061456 | 32 | 354 | 0.0 | 0.0 | 0.00 | 0.00 | 0.00 | 88 | 980.1 |
| 20260506060955 | 32 | 354 | 0.0 | 0.0 | 0.00 | 0.00 | 0.00 | 88 | 980.4 |
| 20260506060454 | 32 | 354 | 0.0 | 0.0 | 0.00 | 0.00 | 0.00 | 88 | 980.3 |
| 20260506050945 | 34 | 354 | 0.0 | 0.0 | 0.00 | 0.00 | 0.00 | 84 | 980.1 |
| 20260506050444 | 34 | 354 | 0.0 | 0.0 | 0.00 | 0.00 | 0.00 | 84 | 979.8 |
| 20260506044941 | 34 | 354 | 0.0 | 0.0 | 0.00 | 0.00 | 0.00 | 83 | 980.0 |
| 20260506044441 | 34 | 354 | 0.0 | 0.0 | 0.00 | 0.00 | 0.00 | 82 | 979.9 |
| 20260506043940 | 34 | 354 | 0.0 | 0.0 | 0.00 | 0.00 | 0.00 | 82 | 979.9 |
| 20260506043439 | 35 | 354 | 0.0 | 0.0 | 0.00 | 0.00 | 0.00 | 81 | 979.8 |
| 20260506042938 | 35 | 354 | 0.0 | 0.0 | 0.00 | 0.00 | 0.00 | 80 | 979.8 |
| 20260506042437 | 35 | 354 | 0.0 | 0.0 | 0.00 | 0.00 | 0.00 | 79 | 980.0 |
| 20260506041937 | 35 | 354 | 0.0 | 0.0 | 0.00 | 0.00 | 0.00 | 79 | 979.8 |
| 20260506041436 | 35 | 354 | 0.0 | 0.0 | 0.00 | 0.00 | 0.00 | 79 | 979.9 |
| 20260506040936 | 36 | 354 | 0.0 | 0.0 | 0.00 | 0.00 | 0.00 | 79 | 979.8 |
| 20260506040435 | 36 | 354 | 0.0 | 0.0 | 0.00 | 0.00 | 0.00 | 79 | 979.9 |
| 20260506035934 | 36 | 354 | 0.0 | 0.0 | 0.00 | 0.00 | 0.00 | 78 | 979.8 |
| 20260506034932 | 37 | 354 | 0.0 | 0.0 | 0.00 | 0.00 | 0.00 | 77 | 979.5 |
| 20260506034432 | 37 | 354 | 0.0 | 0.0 | 0.00 | 0.00 | 0.00 | 76 | 979.5 |
| 20260506033931 | 37 | 354 | 0.0 | 0.0 | 0.00 | 0.00 | 0.00 | 75 | 979.7 |
| 20260506033430 | 38 | 354 | 0.0 | 0.0 | 0.00 | 0.00 | 0.00 | 76 | 979.7 |
| 20260506032928 | 38 | 354 | 0.0 | 0.0 | 0.00 | 0.00 | 0.00 | 74 | 979.7 |
| 20260506032427 | 38 | 354 | 0.0 | 0.0 | 0.00 | 0.00 | 0.00 | 75 | 979.6 |
| 20260506031927 | 38 | 354 | 0.0 | 0.0 | 0.00 | 0.00 | 0.00 | 74 | 979.6 |
| 20260506031426 | 39 | 354 | 0.0 | 0.0 | 0.00 | 0.00 | 0.00 | 73 | 979.6 |
| 20260506030925 | 39 | 354 | 0.0 | 0.0 | 0.00 | 0.00 | 0.00 | 72 | 979.6 |
| 20260506030424 | 39 | 354 | 0.0 | 0.0 | 0.00 | 0.00 | 0.00 | 71 | 979.7 |
| 20260506025923 | 40 | 354 | 0.0 | 0.0 | 0.00 | 0.00 | 0.00 | 71 | 979.8 |
| 20260506025422 | 40 | 354 | 0.0 | 0.0 | 0.00 | 0.00 | 0.00 | 70 | 979.5 |
| 20260506024921 | 40 | 354 | 0.0 | 0.0 | 0.00 | 0.00 | 0.00 | 67 | 979.5 |
| 20260506024420 | 41 | 354 | 0.0 | 0.0 | 0.00 | 0.00 | 0.00 | 69 | 979.5 |
| 20260506023920 | 41 | 354 | 0.0 | 0.0 | 0.00 | 0.00 | 0.00 | 68 | 979.5 |
| 20260506023419 | 41 | 354 | 0.0 | 0.0 | 0.00 | 0.00 | 0.00 | 67 | 979.4 |
| 20260506022918 | 42 | 354 | 0.0 | 0.0 | 0.00 | 0.00 | 0.00 | 64 | 979.3 |
| 20260506022417 | 42 | 354 | 0.0 | 0.0 | 0.00 | 0.00 | 0.00 | 67 | 979.3 |
| 20260506021917 | 42 | 354 | 0.0 | 0.0 | 0.00 | 0.00 | 0.00 | 65 | 979.2 |
| 20260506021416 | 43 | 354 | 0.0 | 0.0 | 0.00 | 0.00 | 0.00 | 63 | 979.1 |
| 20260506020915 | 43 | 354 | 0.0 | 0.0 | 0.00 | 0.00 | 0.00 | 62 | 979.0 |
| 20260506020414 | 44 | 353 | 0.0 | 0.0 | 0.00 | 0.00 | 0.00 | 57 | 978.8 |
| 20260506015914 | 44 | 356 | 0.0 | 0.9 | 0.00 | 0.00 | 0.00 | 54 | 978.7 |
| 20260506015413 | 45 | 358 | 0.0 | 0.0 | 0.00 | 0.00 | 0.00 | 53 | 978.8 |
| 20260506014912 | 45 | 0 | 0.0 | 0.0 | 0.00 | 0.00 | 0.00 | 50 | 978.7 |
| 20260506014410 | 46 | 352 | 0.0 | 0.0 | 0.00 | 0.00 | 0.00 | 49 | 978.5 |
| 20260506013909 | 46 | 1 | 0.0 | 0.0 | 0.00 | 0.00 | 0.00 | 49 | 978.4 |
| 20260506013407 | 46 | 357 | 0.0 | 0.0 | 0.00 | 0.00 | 0.00 | 48 | 978.5 |
| 20260506012907 | 47 | 353 | 0.0 | 0.0 | 0.00 | 0.00 | 0.00 | 46 | 978.4 |
| 20260506012406 | 47 | 344 | 0.0 | 0.0 | 0.00 | 0.00 | 0.00 | 46 | 978.3 |
| 20260506011905 | 47 | 48 | 0.0 | 0.0 | 0.00 | 0.00 | 0.00 | 46 | 978.3 |
| 20260506011404 | 48 | 9 | 0.0 | 0.0 | 0.00 | 0.00 | 0.00 | 44 | 978.3 |
| 20260506010903 | 48 | 349 | 0.0 | 0.0 | 0.00 | 0.00 | 0.00 | 45 | 978.1 |
| 20260506010402 | 48 | 3 | 0.0 | 0.0 | 0.00 | 0.00 | 0.00 | 46 | 978.2 |
| 20260506005901 | 48 | 6 | 0.0 | 0.0 | 0.00 | 0.00 | 0.00 | 43 | 978.0 |
| 20260506005401 | 49 | 3 | 0.0 | 0.0 | 0.00 | 0.00 | 0.00 | 44 | 977.9 |
| 20260506004900 | 49 | 4 | 0.0 | 0.0 | 0.00 | 0.00 | 0.00 | 44 | 978.0 |
| 20260506004359 | 49 | 269 | 0.0 | 0.0 | 0.00 | 0.00 | 0.00 | 43 | 978.1 |
| 20260506003858 | 50 | 41 | 0.0 | 0.0 | 0.00 | 0.00 | 0.00 | 41 | 977.9 |
| 20260506003357 | 50 | 20 | 0.0 | 0.0 | 0.00 | 0.00 | 0.00 | 40 | 977.9 |
| 20260506002856 | 50 | 74 | 0.0 | 0.0 | 0.00 | 0.00 | 0.00 | 43 | 977.8 |
| 20260506002356 | 50 | 271 | 0.0 | 0.0 | 0.00 | 0.00 | 0.00 | 41 | 977.8 |
| 20260506001855 | 50 | 349 | 0.0 | 0.0 | 0.00 | 0.00 | 0.00 | 40 | 977.9 |
| 20260506001354 | 50 | 5 | 0.0 | 0.9 | 0.00 | 0.00 | 0.00 | 41 | 978.0 |
| 20260506000853 | 50 | 3 | 0.0 | 0.0 | 0.00 | 0.00 | 0.00 | 42 | 978.1 |
| 20260506000354 | 50 | 334 | 0.0 | 0.0 | 0.00 | 0.00 | 0.00 | 41 | 977.9 |
| 20260505235851 | 50 | 335 | 0.0 | 0.0 | 0.00 | 0.00 | 0.00 | 41 | 978.0 |
| 20260505235351 | 51 | 225 | 0.0 | 0.9 | 0.00 | 0.00 | 0.00 | 41 | 977.8 |
| 20260505234849 | 51 | 303 | 0.0 | 0.0 | 0.00 | 0.00 | 0.00 | 40 | 977.9 |
| 20260505234349 | 51 | 240 | 0.9 | 0.9 | 0.00 | 0.00 | 0.00 | 39 | 977.9 |
| 20260505233848 | 51 | 1 | 0.0 | 0.0 | 0.00 | 0.00 | 0.00 | 37 | 977.6 |
| 20260505233347 | 52 | 302 | 0.9 | 1.7 | 0.00 | 0.00 | 0.00 | 37 | 977.8 |
| 20260505232846 | 52 | 67 | 0.9 | 1.7 | 0.00 | 0.00 | 0.00 | 37 | 977.8 |
| 20260505232345 | 52 | 128 | 0.9 | 1.7 | 0.00 | 0.00 | 0.00 | 37 | 977.8 |
| 20260505231845 | 52 | 261 | 0.9 | 0.9 | 0.00 | 0.00 | 0.00 | 38 | 977.9 |
| 20260505231344 | 53 | 2 | 1.7 | 2.6 | 0.00 | 0.00 | 0.00 | 37 | 977.9 |
| 20260505230843 | 52 | 349 | 0.0 | 0.0 | 0.00 | 0.00 | 0.00 | 39 | 977.8 |
| 20260505230342 | 52 | 11 | 0.9 | 1.7 | 0.00 | 0.00 | 0.00 | 36 | 977.9 |
| 20260505225841 | 53 | 351 | 0.0 | 0.9 | 0.00 | 0.00 | 0.00 | 37 | 978.2 |
| 20260505225341 | 53 | 3 | 0.0 | 0.0 | 0.00 | 0.00 | 0.00 | 38 | 978.0 |
| 20260505224840 | 53 | 357 | 0.0 | 0.0 | 0.00 | 0.00 | 0.00 | 38 | 978.1 |
| 20260505224339 | 53 | 318 | 0.0 | 0.0 | 0.00 | 0.00 | 0.00 | 38 | 978.0 |
| 20260505223838 | 53 | 270 | 0.0 | 0.9 | 0.00 | 0.00 | 0.00 | 37 | 977.9 |
| 20260505223338 | 54 | 275 | 1.7 | 2.6 | 0.00 | 0.00 | 0.00 | 35 | 978.0 |
| 20260505222837 | 55 | 282 | 1.7 | 2.6 | 0.00 | 0.00 | 0.00 | 35 | 977.7 |
| 20260505222336 | 54 | 295 | 0.0 | 0.0 | 0.00 | 0.00 | 0.00 | 35 | 977.8 |
| 20260505221835 | 53 | 358 | 0.0 | 0.0 | 0.00 | 0.00 | 0.00 | 37 | 977.7 |
| 20260505221335 | 53 | 282 | 0.0 | 0.9 | 0.00 | 0.00 | 0.00 | 36 | 977.7 |
| 20260505220834 | 53 | 272 | 0.0 | 0.0 | 0.00 | 0.00 | 0.00 | 35 | 977.6 |
| 20260505220333 | 53 | 287 | 0.0 | 0.0 | 0.00 | 0.00 | 0.00 | 36 | 977.7 |
| 20260505215832 | 54 | 352 | 0.0 | 0.9 | 0.00 | 0.00 | 0.00 | 35 | 977.8 |
| 20260505215332 | 54 | 217 | 0.0 | 0.0 | 0.00 | 0.00 | 0.00 | 37 | 977.7 |
| 20260505214831 | 53 | 290 | 0.9 | 2.6 | 0.00 | 0.00 | 0.00 | 35 | 977.7 |
| 20260505214330 | 53 | 17 | 0.0 | 0.0 | 0.00 | 0.00 | 0.00 | 38 | 977.8 |
| 20260505213829 | 54 | 312 | 0.0 | 0.0 | 0.00 | 0.00 | 0.00 | 39 | 977.7 |
| 20260505213328 | 54 | 9 | 0.0 | 0.0 | 0.00 | 0.00 | 0.00 | 37 | 977.8 |
| 20260505212827 | 53 | 20 | 0.0 | 0.0 | 0.00 | 0.00 | 0.00 | 37 | 977.8 |
| 20260505212326 | 54 | 274 | 2.6 | 5.2 | 0.00 | 0.00 | 0.00 | 37 | 977.7 |
| 20260505211826 | 55 | 231 | 0.9 | 1.7 | 0.00 | 0.00 | 0.00 | 36 | 977.7 |
| 20260505211325 | 56 | 266 | 0.0 | 0.9 | 0.00 | 0.00 | 0.00 | 36 | 977.9 |
| 20260505210824 | 55 | 287 | 2.6 | 2.6 | 0.00 | 0.00 | 0.00 | 35 | 977.8 |
| 20260505210323 | 55 | 227 | 2.6 | 5.2 | 0.00 | 0.00 | 0.00 | 35 | 977.8 |
| 20260505205823 | 55 | 356 | 0.0 | 0.0 | 0.00 | 0.00 | 0.00 | 40 | 977.9 |
| 20260505205322 | 54 | 346 | 4.3 | 5.2 | 0.00 | 0.00 | 0.00 | 35 | 977.9 |
| 20260505204821 | 54 | 302 | 0.9 | 0.9 | 0.00 | 0.00 | 0.00 | 37 | 978.1 |
| 20260505204320 | 56 | 327 | 4.3 | 6.1 | 0.00 | 0.00 | 0.00 | 36 | 978.2 |
| 20260505203819 | 57 | 17 | 0.0 | 0.0 | 0.00 | 0.00 | 0.00 | 33 | 978.1 |
| 20260505203318 | 56 | 275 | 0.9 | 1.7 | 0.00 | 0.00 | 0.00 | 34 | 978.2 |
| 20260505202818 | 55 | 334 | 1.7 | 1.7 | 0.00 | 0.00 | 0.00 | 34 | 978.3 |
| 20260505202317 | 56 | 9 | 0.0 | 0.0 | 0.00 | 0.00 | 0.00 | 35 | 978.1 |
| 20260505201816 | 57 | 248 | 0.0 | 0.9 | 0.00 | 0.00 | 0.00 | 35 | 978.1 |
| 20260505201315 | 57 | 270 | 0.9 | 1.7 | 0.00 | 0.00 | 0.00 | 34 | 978.1 |
| 20260505200815 | 57 | 310 | 0.0 | 0.9 | 0.00 | 0.00 | 0.00 | 36 | 978.2 |
| 20260505200314 | 55 | 236 | 2.6 | 3.5 | 0.00 | 0.00 | 0.00 | 37 | 978.2 |
| 20260505195813 | 55 | 334 | 7.8 | 13.0 | 0.00 | 0.00 | 0.00 | 35 | 978.1 |
| 20260505195312 | 55 | 275 | 0.9 | 1.7 | 0.00 | 0.00 | 0.00 | 35 | 978.1 |
| 20260505194812 | 55 | 18 | 3.5 | 5.2 | 0.00 | 0.00 | 0.00 | 40 | 978.3 |
| 20260505194304 | 55 | 355 | 0.0 | 0.0 | 0.00 | 0.00 | 0.00 | 36 | 978.3 |
| 20260505193803 | 56 | 251 | 1.7 | 2.6 | 0.00 | 0.00 | 0.00 | 34 | 978.1 |
| 20260505193302 | 55 | 252 | 1.7 | 2.6 | 0.00 | 0.00 | 0.00 | 36 | 978.1 |
| 20260505192801 | 55 | 225 | 1.7 | 2.6 | 0.00 | 0.00 | 0.00 | 34 | 978.2 |
| 20260505192301 | 56 | 287 | 0.9 | 1.7 | 0.00 | 0.00 | 0.00 | 36 | 978.3 |
| 20260505191800 | 56 | 246 | 1.7 | 2.6 | 0.00 | 0.00 | 0.00 | 34 | 977.9 |
| 20260505191259 | 56 | 210 | 0.0 | 0.0 | 0.00 | 0.00 | 0.00 | 35 | 978.2 |
| 20260505190758 | 57 | 252 | 3.5 | 6.1 | 0.00 | 0.00 | 0.00 | 35 | 978.2 |
| 20260505190257 | 56 | 5 | 0.9 | 1.7 | 0.00 | 0.00 | 0.00 | 33 | 978.3 |
| 20260505185757 | 57 | 291 | 0.0 | 0.9 | 0.00 | 0.00 | 0.00 | 33 | 978.2 |
| 20260505185256 | 56 | 220 | 0.0 | 0.9 | 0.00 | 0.00 | 0.00 | 34 | 978.3 |
| 20260505184755 | 57 | 237 | 0.9 | 1.7 | 0.00 | 0.00 | 0.00 | 32 | 978.1 |
| 20260505184254 | 56 | 257 | 2.6 | 2.6 | 0.00 | 0.00 | 0.00 | 35 | 978.1 |
| 20260505183753 | 56 | 319 | 0.9 | 1.7 | 0.00 | 0.00 | 0.00 | 34 | 978.2 |
| 20260505183252 | 56 | 308 | 0.9 | 0.9 | 0.00 | 0.00 | 0.00 | 35 | 978.1 |
| 20260505182751 | 55 | 15 | 0.0 | 0.0 | 0.00 | 0.00 | 0.00 | 33 | 977.9 |
| 20260505182251 | 54 | 349 | 0.9 | 1.7 | 0.00 | 0.00 | 0.00 | 35 | 977.9 |
| 20260505181750 | 54 | 321 | 0.9 | 1.7 | 0.00 | 0.00 | 0.00 | 36 | 978.1 |
| 20260505181249 | 56 | 286 | 2.6 | 2.6 | 0.00 | 0.00 | 0.00 | 33 | 978.1 |
| 20260505180748 | 54 | 231 | 1.7 | 2.6 | 0.00 | 0.00 | 0.00 | 34 | 978.1 |
| 20260505180247 | 55 | 303 | 1.7 | 2.6 | 0.00 | 0.00 | 0.00 | 36 | 978.2 |
| 20260505175747 | 55 | 248 | 3.5 | 3.5 | 0.00 | 0.00 | 0.00 | 35 | 978.1 |
| 20260505175246 | 55 | 248 | 3.5 | 5.2 | 0.00 | 0.00 | 0.00 | 32 | 978.1 |
| 20260505174745 | 54 | 228 | 1.7 | 2.6 | 0.00 | 0.00 | 0.00 | 34 | 978.1 |
| 20260505174244 | 54 | 34 | 2.6 | 3.5 | 0.00 | 0.00 | 0.00 | 34 | 977.9 |
| 20260505173743 | 55 | 298 | 0.0 | 0.9 | 0.00 | 0.00 | 0.00 | 35 | 978.1 |
| 20260505173243 | 56 | 289 | 5.2 | 7.8 | 0.00 | 0.00 | 0.00 | 37 | 978.2 |
| 20260505172742 | 54 | 257 | 0.0 | 0.9 | 0.00 | 0.00 | 0.00 | 36 | 977.9 |
| 20260505172241 | 54 | 350 | 1.7 | 3.5 | 0.00 | 0.00 | 0.00 | 33 | 978.0 |
| 20260505171740 | 55 | 249 | 0.9 | 3.5 | 0.00 | 0.00 | 0.00 | 33 | 978.1 |
| 20260505171239 | 54 | 229 | 1.7 | 2.6 | 0.00 | 0.00 | 0.00 | 36 | 978.1 |
| 20260505170738 | 54 | 1 | 5.2 | 7.8 | 0.00 | 0.00 | 0.00 | 33 | 978.0 |
| 20260505170238 | 56 | 285 | 0.0 | 1.7 | 0.00 | 0.00 | 0.00 | 33 | 978.2 |
| 20260505165737 | 54 | 324 | 0.0 | 0.0 | 0.00 | 0.00 | 0.00 | 36 | 978.1 |
| 20260505165236 | 55 | 272 | 2.6 | 2.6 | 0.00 | 0.00 | 0.00 | 36 | 978.0 |
| 20260505164735 | 55 | 285 | 1.7 | 3.5 | 0.00 | 0.00 | 0.00 | 35 | 977.9 |
| 20260505164234 | 54 | 340 | 1.7 | 2.6 | 0.00 | 0.00 | 0.00 | 38 | 978.2 |
| 20260505163733 | 54 | 288 | 0.9 | 1.7 | 0.00 | 0.00 | 0.00 | 33 | 978.1 |
| 20260505163233 | 53 | 0 | 0.0 | 0.0 | 0.00 | 0.00 | 0.00 | 36 | 977.9 |
| 20260505162731 | 54 | 28 | 5.2 | 7.8 | 0.00 | 0.00 | 0.00 | 33 | 978.1 |
| 20260505162230 | 54 | 34 | 0.0 | 0.0 | 0.00 | 0.00 | 0.00 | 34 | 978.1 |
| 20260505161729 | 53 | 285 | 1.7 | 2.6 | 0.00 | 0.00 | 0.00 | 39 | 978.1 |
| 20260505161228 | 53 | 15 | 1.7 | 7.0 | 0.00 | 0.00 | 0.00 | 33 | 978.1 |
| 20260505160728 | 52 | 13 | 4.3 | 5.2 | 0.00 | 0.00 | 0.00 | 33 | 978.0 |
| 20260505160227 | 52 | 334 | 8.7 | 11.3 | 0.00 | 0.00 | 0.00 | 34 | 977.8 |
| 20260505153222 | 53 | 263 | 2.6 | 3.5 | 0.00 | 0.00 | 0.00 | 35 | 977.9 |
| 20260505152722 | 52 | 271 | 0.0 | 0.0 | 0.00 | 0.00 | 0.00 | 36 | 977.6 |
| 20260505152221 | 52 | 349 | 0.0 | 0.0 | 0.00 | 0.00 | 0.00 | 36 | 977.8 |
| 20260505151720 | 53 | 329 | 5.2 | 7.0 | 0.00 | 0.00 | 0.00 | 36 | 977.7 |
| 20260505151219 | 53 | 258 | 0.0 | 0.0 | 0.00 | 0.00 | 0.00 | 37 | 977.7 |
| 20260505150719 | 53 | 176 | 1.7 | 2.6 | 0.00 | 0.00 | 0.00 | 37 | 977.7 |
| 20260505150218 | 54 | 216 | 0.9 | 1.7 | 0.00 | 0.00 | 0.00 | 36 | 977.7 |
| 20260505140209 | 51 | 3 | 0.0 | 0.0 | 0.00 | 0.00 | 0.00 | 42 | 977.7 |
| 20260505130201 | 48 | 282 | 0.0 | 0.9 | 0.00 | 0.00 | 0.00 | 52 | 977.8 |
| 20260505124658 | 46 | 323 | 0.0 | 0.0 | 0.00 | 0.00 | 0.00 | 53 | 977.6 |
| 20260505124158 | 45 | 10 | 0.0 | 0.0 | 0.00 | 0.00 | 0.00 | 54 | 977.7 |
| 20260505123657 | 45 | 261 | 0.0 | 0.0 | 0.00 | 0.00 | 0.00 | 58 | 977.5 |
| 20260505123157 | 45 | 301 | 0.0 | 0.0 | 0.00 | 0.00 | 0.00 | 57 | 977.3 |
| 20260505122656 | 44 | 1 | 0.0 | 0.0 | 0.00 | 0.00 | 0.00 | 59 | 977.6 |
| 20260505122155 | 42 | 37 | 0.0 | 0.0 | 0.00 | 0.00 | 0.00 | 72 | 977.3 |
| 20260505121654 | 42 | 53 | 0.0 | 0.0 | 0.00 | 0.00 | 0.00 | 73 | 977.3 |
| 20260505121153 | 41 | 14 | 0.0 | 0.0 | 0.00 | 0.00 | 0.00 | 74 | 977.3 |
| 20260505120652 | 40 | 32 | 0.0 | 0.0 | 0.00 | 0.00 | 0.00 | 75 | 977.1 |
| 20260505120151 | 38 | 22 | 0.0 | 0.0 | 0.00 | 0.00 | 0.00 | 77 | 977.2 |
| 20260505115651 | 37 | 0 | 0.0 | 0.0 | 0.00 | 0.00 | 0.00 | 82 | 977.0 |
| 20260505115150 | 35 | 0 | 0.0 | 0.0 | 0.00 | 0.00 | 0.00 | 84 | 977.0 |
| 20260505114650 | 34 | 359 | 0.0 | 0.0 | 0.00 | 0.00 | 0.00 | 85 | 976.6 |
| 20260505114149 | 34 | 359 | 0.0 | 0.0 | 0.00 | 0.00 | 0.00 | 85 | 976.3 |
| 20260505113648 | 34 | 359 | 0.0 | 0.0 | 0.00 | 0.00 | 0.00 | 85 | 976.2 |
| 20260505113147 | 34 | 359 | 0.0 | 0.0 | 0.00 | 0.00 | 0.00 | 84 | 976.1 |
| 20260505112647 | 34 | 359 | 0.0 | 0.0 | 0.00 | 0.00 | 0.00 | 84 | 975.9 |
| 20260505112146 | 34 | 352 | 0.0 | 0.0 | 0.00 | 0.00 | 0.00 | 83 | 976.0 |
| 20260505111645 | 34 | 358 | 0.0 | 0.0 | 0.00 | 0.00 | 0.00 | 84 | 975.6 |
| 20260505111145 | 34 | 354 | 0.0 | 0.0 | 0.00 | 0.00 | 0.00 | 84 | 975.5 |
| 20260505110644 | 34 | 358 | 0.0 | 0.0 | 0.00 | 0.00 | 0.00 | 83 | 975.6 |
| 20260505110143 | 34 | 359 | 0.0 | 0.0 | 0.00 | 0.00 | 0.00 | 83 | 975.6 |
| 20260505102137 | 36 | 353 | 0.0 | 0.0 | 0.00 | 0.00 | 0.00 | 81 | 975.8 |
| 20260505101636 | 37 | 359 | 0.0 | 0.0 | 0.00 | 0.00 | 0.00 | 80 | 975.8 |
| 20260505101135 | 37 | 359 | 0.0 | 0.0 | 0.00 | 0.00 | 0.00 | 78 | 975.7 |
| 20260505100634 | 37 | 0 | 0.0 | 0.0 | 0.00 | 0.00 | 0.00 | 78 | 975.6 |
| 20260505100134 | 37 | 0 | 0.0 | 0.0 | 0.00 | 0.00 | 0.00 | 78 | 975.6 |
| 20260505095633 | 38 | 0 | 0.0 | 0.0 | 0.00 | 0.00 | 0.00 | 77 | 975.5 |
| 20260505095132 | 38 | 0 | 0.0 | 0.0 | 0.00 | 0.00 | 0.00 | 75 | 975.6 |
| 20260505094631 | 38 | 0 | 0.0 | 0.0 | 0.00 | 0.00 | 0.00 | 74 | 975.6 |
| 20260505094130 | 39 | 0 | 0.0 | 0.0 | 0.00 | 0.00 | 0.00 | 75 | 975.4 |
| 20260505093629 | 39 | 0 | 0.0 | 0.0 | 0.00 | 0.00 | 0.00 | 72 | 975.4 |
| 20260505093129 | 40 | 0 | 0.0 | 0.0 | 0.00 | 0.00 | 0.00 | 71 | 975.3 |
| 20260505092628 | 40 | 0 | 0.0 | 0.0 | 0.00 | 0.00 | 0.00 | 70 | 975.3 |